Regional Weather Roundup
Issued by NWS Charleston, SC

Current Version | Previous Version | Graphics & Text | Print | Product List | Glossary On
Versions: 1 2 3 4 5 6 7 8 9 10 11 12 13 14 15 16 17 18 19 20 21 22 23 24 25 26 27 28 29 30 31 32 33 34 35 36 37 38 39 40 41 42 43 44 45 46 47 48 49 50
000
ASUS42 KCHS 022227
RWRCHS

REGIONAL WEATHER ROUNDUP
NATIONAL WEATHER SERVICE CHARLESTON SC
600 PM EDT WED SEP 02 2015

NOTE: "FAIR" INDICATES FEW OR NO CLOUDS BELOW 12,000 FEET WITH NO
SIGNIFICANT WEATHER AND/OR OBSTRUCTIONS TO VISIBILITY.

NOT ALL STATIONS ARE QUALITY CONTROLLED BY THE NATIONAL
WEATHER SERVICE. USE DATA WITH CAUTION...ESPECIALLY
DEWPOINT OBSERVATIONS.

SCZ027-030-031-034>040-042>050-022300-
...SOUTHEAST SOUTH CAROLINA...

CITY           SKY/WX    TMP DP  RH WIND       PRES   REMARKS
N CHARLESTON   PTSUNNY   84  74  71 SW9       29.98F HX  91
WATERFRONT PRK   N/A     84  77  79 S7        29.97F HX  94
MOUNT PLEASANT FAIR      84  75  74 S7        29.98F HX  92
JOHNS ISLAND   FAIR      82  77  83 SW6       29.99S HX  91
PINOPOLIS        N/A     93  75  55 S7        29.91F HX 104
MONCKS CORNER  FAIR      88  73  62 S5        29.97F HX  96
SUMMERVILLE    FAIR      82  75  78 S3        29.99F
BEAUFORT MCAS  CLOUDY    81  73  76 SW8       30.00F
BEAUFORT ARPT  FAIR      81  75  83 SW3       29.99S
HILTON HEAD IS PTSUNNY   79  75  89 W5        30.01F
WALTERBORO     MOCLDY    82  73  74 S5        30.00S
ALLENDALE      FAIR      79  75  89 CALM      29.98F

...SOUTHERN MIDLANDS AND PEE DEE...

CITY           SKY/WX    TMP DP  RH WIND       PRES   REMARKS
GEORGETOWN     NOT AVBL
KINGSTREE      NOT AVBL
ORANGEBURG     MOSUNNY   90  69  50 SE8       29.97F HX  94
BARNWELL       MOCLDY    84  73  70 SW7       29.99F HX  91
AIKEN          FAIR      88  63  42 CALM      30.02S
MANNING        FAIR      90  64  43 S5        29.96F HX  91
COLUMBIA       MOSUNNY   93  66  40 CALM      29.96F HX  96
SUMTER         SUNNY     92  68  44 SE1       29.94F HX  96
FLORENCE       MOSUNNY   92  67  43 S5        29.96F HX  95
MYRTLE BEACH   NOT AVBL
N MYRTLE BEACH MOSUNNY   85  72  65 SW15      29.97F HX  91

$$

GAZ063-065-086>088-099>101-113>116-118-119-134>141-150-022300-
...SOUTHEAST GEORGIA...

CITY           SKY/WX    TMP DP  RH WIND       PRES   REMARKS
SAVANNAH ARPT  CLOUDY    78  73  84 CALM      30.00F
HUNTER AAF     NOT AVBL
FORT STEWART   NOT AVBL
STATESBORO     PTSUNNY   82  76  83 S6        29.99S
SYLVANIA       MOCLDY    83  77  83 CALM      30.00F HX  91
CLAXTON        NOT AVBL

...CSRA...CENTRAL AND FAR SOUTHEAST GEORGIA...

CITY           SKY/WX    TMP DP  RH WIND       PRES   REMARKS
THOMSON        MOSUNNY   90  71  53 CALM      30.03F HX  96
AUGUSTA-BUSH   PTSUNNY   88  72  58 S5        29.96F HX  94
AUGUSTA-DANIEL PTSUNNY   92  68  45 VRB3      29.99F HX  96
SWAINSBORO     FAIR      86  68  54 S3        30.00S
VIDALIA        PTSUNNY   82  73  74 S9        30.00R
EASTMAN        FAIR      88  73  61 E6        30.01S HX  96
HAZLEHURST     MOCLDY    79  79 100 CALM      29.98F
ALMA           RAIN      75  75 100 CALM      29.98F FOG
WAYCROSS       TSTM      80  80  99 S6        29.96F
JESUP          RAIN      77  75  94 SE5       30.00R
BAXLEY         TSTM      79  77  94 CALM      29.99S
BRUNSWICK      CLOUDY    73  72  94 CALM      29.99F THUNDER
SAINT SIMONS   CLOUDY    77  75  93 E7        29.98F

$$

SCZ027-028-034-036>038-045-046-048>050-GAZ119-141-022300-
...LAKE AND SUPPLEMENTAL COASTAL OBSERVATIONS...

STATION/POSITION TIME  TEMP    WIND        PRES    WAVE   SWELL
                       AIR SEA DIR/SP/G            HT/PER HT/PER/DIR
                 (UTC) (F)     (DEG/KT/KT) (MB)    (FT/S) (FT/S/D)
UPR LAKE MARION  NOT AVBL
WINYAH BAY       2145   86     190/  7     1014.0F
LAKE MURRAY      2100   92     190/  4/  5 1014.9F
ACE BASIN NERRS  NOT AVBL
FORT PULASKI     2200   78 83   50/  3/  3 1016.1F
SAPELO ISLAND    2200   75     220/  8     1016.0S

$$

ANZ835-935-AMZ111-154-330-350-352-354-370-450-454-472-022300-
...C-MAN AND BUOY OBSERVATIONS...

STATION/POSITION TIME  TEMP    WIND        PRES    WAVE   SWELL
                       AIR SEA DIR/SP/G            HT/PER HT/PER/DIR
                 (UTC) (F)     (DEG/KT/KT) (MB)    (FT/S) (FT/S/D)
BUOY 41004       2150   83 85  230/  4/  4 1015.1F   2/ 7   2/ 7
BUOY 41008       2150   80 84   80/  6/  8 1015.9F   1/ 9   2/100/ 9
FOLLY BEACH CMAN 2200   82     220/ 10/ 12 1015.6F
CAPERS NEARSHORE 2108   83     210/ 10/ 12 1016.0F
FRIPP NEARSHORE  2100   81     250/ 12/ 12 1016.1F


STATION/POSITION TIME  TEMP    WIND        PRES    WAVE   SWELL
                       AIR SEA DIR/SP/G            HT/PER HT/PER/DIR
                 (UTC) (F)     (DEG/KT/KT) (MB)    (FT/S) (FT/S/D)
5E ST. MARYS GA  2121      85                N/A     2/ 9
FRYING PAN BUOY  2150   83 83  210/ 10/ 10 1015.4F   2/ 6   2/150/ 6
BUOY 41025       2150   83 86  320/  2/  2 1014.9F   2/ 9   2/110/ 9
CAPE LOOKOUT NC  2200   82     170/  6/  7 1014.4F
BUOY 41002       2150   83 84  290/  8/ 10 1015.2F   2/ 8   2/ 80/ 8
BUOY 41010       2120   86 88  280/  2/  4 1016.4F
ST AUGUSTINE FL  2200   80 86  180/ 20/ 22 1016.3S


$$


USA.gov is the U.S. government's official web portal to all federal, state and local government web resources and services.